Weather Roundup
Issued by NWS Chicago, IL

Home | Current Version | Previous Version | Graphics & Text | Print | Product List | Glossary On
Versions: 1 2 3 4 5 6 7 8 9 10 11 12 13 14 15 16 17 18 19 20 21 22 23 24 25 26 27 28 29 30 31 32 33 34 35 36 37 38 39 40 41 42 43 44 45 46 47 48 49 50
125
NZUS59 KLOT 261103
HRRLOT

CHICAGO AREA WEATHER ROUNDUP
NATIONAL WEATHER SERVICE CHICAGO/ROMEOVILLE IL
600 AM CDT THU MAY 26 2016

NOTE: "FAIR" INDICATES FEW OR NO CLOUDS BELOW 12,000 FEET WITH NO
SIGNIFICANT WEATHER AND/OR OBSTRUCTIONS TO VISIBILITY.

* THESE STATIONS ARE NOT UNDER NWS QUALITY CONTROL. THEY ALSO MAY NOT
  REPORT WEATHER SUCH AS PRECIPITATION OR FOG.

ILZ005-006-012>014-019>023-261200-
NORTHEAST ILLINOIS

CITY           SKY/WX    TMP DP  RH WIND       PRES   REMARKS
OHARE          MOCLDY    68  66  93 SW10      29.91R
MIDWAY         CLOUDY    69  64  84 S9        29.92R
AURORA         CLOUDY    68  65  90 S9        29.92R FOG
LANSING*       CLEAR     66  64  93 S7        29.94R FOG
WAUKEGAN       CLOUDY    65  64  97 SW9       29.89R FOG
DUPAGE AIRPORT CLOUDY    67  64  90 S9        29.91R FOG
WHEELING       CLEAR     67  65  93 S10       29.92R
$$

WIZ051-052-058>065-066-070>072-261200-
SOUTHEAST WISCONSIN

CITY           SKY/WX    TMP DP  RH WIND       PRES   REMARKS
MILWAUKEE      CLOUDY    64  61  90 S8        29.88R FOG
KENOSHA*       PTCLDY    65  63  93 SW7       29.89R FOG
RACINE*        FOG       58  57  97 CALM      29.90R VSB<1/4
WAUKESHA         N/A     63  63 100 S6        29.89R FOG
$$

INZ001>003-010>013-019-020-261200-
NORTHWEST INDIANA

CITY           SKY/WX    TMP DP  RH WIND       PRES   REMARKS
GARY*          MOCLDY    68  68 100 S9        29.94R
MICHIGAN CITY* NOT AVBL
RENSSELAER*    NOT AVBL
VALPARAISO     MOCLDY    66  64  93 S8        29.96R FOG
$$

LMZ740>746-261200-
SOUTHERN LAKE MICHIGAN

STATION/POSITION TIME  SKY/WX   TEMP WIND        PRES    VSBY
                                AIR  DIR/SP/G
                 (UTC)          (F)  (DEG/KT/KT) (MB)    (MI)
HARRISON CRIB    1000            69  190/ 16/ 16   N/A
BURNHAM HARBOR   1100            68  210/  8/ 11   N/A
CALUMET HARBOR   1000            68  170/  7/ 10 1011.7F
BURNS HARBOR     1000            68  180/ 11/ 18 1013.2F
MICHIGAN CITY    1000            68  160/ 13/ 17   N/A
$$

ABBREVIATIONS USED IN REMARKS
   TC - TEMPERATURE IN CELSIUS
  WCI - WIND CHILL INDEX
   HX - HEAT INDEX
  VSB - VISIBILITY
$$




USA.gov is the U.S. government's official web portal to all federal, state and local government web resources and services.